Temperature
22 21 20 21 26 27 26 26 26 26 25 24 24 24 24 24 23 22 20 19 19 19 18 18 18 18 18 18 18 18 18 18 18 18 18 18 18 18 18 18 18 18 18 18 18 18 18 18 18
21 21 21 25 28 27 26 26 26 25 25 24 24 24 24 23 21 20 19 19 19 19 18 18 18 18 18 18 18 18 18 18 18 18 18 18 18 18 18 18 18 18 18 18 18 18 18 18 18
21 21 24 28 28 27 26 26 26 25 25 24 24 24 23 22 20 20 19 19 19 18 18 18 18 18 18 18 18 18 18 18 18 18 18 18 18 18 18 18 18 18 18 18 18 18 18 18 18
21 24 27 29 27 27 27 27 26 26 25 24 24 24 22 20 20 19 19 19 19 18 18 18 18 18 18 18 18 18 18 18 18 18 18 18 18 18 18 18 18 18 18 18 18 18 18 18 18
23 27 29 28 27 27 27 26 26 26 26 25 25 24 22 20 20 19 19 19 19 19 18 18 18 18 18 18 18 18 18 18 18 18 18 18 18 18 18 18 18 18 18 18 18 18 18 18 18
27 29 29 28 27 27 27 26 26 26 25 25 25 24 21 20 20 19 19 19 19 19 18 18 18 18 18 18 18 18 18 18 18 18 18 18 18 18 18 18 18 18 18 18 18 18 18 18 18
28 30 29 28 28 27 27 26 27 26 26 25 24 24 22 20 20 20 19 19 19 19 19 18 18 18 18 18 18 18 18 18 18 18 18 18 18 18 18 18 18 18 18 18 18 18 18 18 18
28 30 29 29 28 27 27 27 26 26 25 24 24 24 22 20 20 20 19 19 19 19 19 18 18 18 18 18 18 18 18 18 18 18 18 18 18 18 18 18 18 18 18 18 18 18 18 18 18
28 30 29 29 29 28 27 27 26 25 25 24 24 23 22 20 20 20 20 19 19 19 19 19 18 18 18 18 18 18 18 18 18 18 18 18 18 18 18 18 18 18 18 18 18 18 18 18 18
30 30 29 29 30 29 28 27 26 26 26 25 23 22 21 20 20 20 20 20 19 19 19 19 19 18 18 18 18 18 18 18 18 17 17 18 18 18 18 18 18 18 18 18 18 18 18 18 18
31 30 30 29 29 28 28 27 26 27 26 25 23 22 21 21 21 21 20 20 20 19 19 19 18 18 18 18 18 18 18 17 17 17 17 18 18 18 18 18 18 18 18 17 18 18 18 18 18
30 30 29 29 28 28 28 27 27 27 26 24 23 22 22 21 21 21 21 20 19 19 19 19 19 18 18 18 18 18 18 18 18 17 17 18 18 18 18 18 18 18 18 18 18 18 17 17 17
30 30 29 29 28 28 27 27 27 26 25 24 23 22 22 22 22 21 20 20 19 19 19 19 18 18 18 18 18 18 18 18 18 18 18 18 18 18 18 18 18 18 18 18 18 18 18 17 17
30 30 29 29 28 28 28 27 27 26 25 24 23 23 22 22 22 21 20 20 19 19 19 19 18 18 18 18 18 18 18 18 18 18 18 18 18 18 18 18 18 18 18 18 18 18 18 17 17
30 30 30 30 29 28 29 28 28 26 25 24 24 23 22 22 22 21 21 20 20 19 19 19 19 18 18 18 18 18 18 18 18 18 18 18 18 18 18 18 18 18 18 18 18 18 18 18 17
31 31 30 30 30 29 29 28 28 26 25 25 24 23 23 22 22 21 21 20 20 20 19 19 19 19 18 18 18 18 18 18 18 18 18 18 18 18 18 18 18 18 18 18 18 18 17 18 18
31 31 30 30 30 30 30 29 28 26 26 26 25 24 23 22 22 21 21 20 20 19 19 19 19 18 18 18 18 18 18 18 18 18 18 18 18 18 18 18 18 18 18 18 18 18 18 18 17
31 31 31 30 30 30 30 30 29 27 26 26 25 25 24 23 22 22 21 20 20 19 19 19 19 19 18 18 18 18 18 18 18 18 18 18 18 18 18 18 18 18 18 18 18 18 18 17 17
31 31 31 31 30 30 29 30 29 28 27 27 26 25 24 24 23 22 21 20 20 20 19 19 19 19 19 18 18 18 18 18 18 18 18 18 18 18 18 18 18 18 18 18 18 18 18 17 17
31 31 31 30 30 30 30 30 30 29 28 27 26 26 25 24 23 22 21 21 20 20 19 19 19 19 19 19 18 18 18 18 18 18 18 18 18 18 18 18 18 18 18 18 18 18 18 17 17
31 31 31 30 30 30 30 30 30 29 28 27 26 26 25 24 23 22 21 21 21 20 20 20 19 19 19 19 18 18 18 18 18 18 18 18 18 18 18 18 18 18 18 18 18 17 17 17 17
30 31 31 30 30 30 30 30 30 30 29 28 27 26 26 25 24 23 22 22 21 20 20 20 19 19 19 19 18 18 18 18 18 18 18 18 18 18 18 18 18 18 18 18 18 18 17 17 18
31 30 30 30 30 30 31 30 31 30 29 29 29 27 26 25 25 24 23 22 21 21 20 20 20 20 19 19 19 18 18 18 18 18 18 18 18 18 18 18 18 18 18 18 18 18 17 17 17
30 30 30 30 31 30 30 30 31 31 30 30 30 28 27 26 25 24 23 22 22 21 21 20 20 20 20 19 19 19 18 18 18 18 18 18 18 18 18 18 18 18 18 18 18 17 17 17 17
30 30 29 29 30 30 31 30 31 31 31 31 30 28 27 26 25 24 23 22 22 21 21 20 20 20 20 19 19 19 19 18 18 18 18 18 18 18 18 18 18 18 18 18 18 18 17 17 17
30 31 30 29 30 31 30 30 31 31 31 30 29 28 27 26 25 24 23 22 22 21 21 20 20 20 20 19 19 19 19 18 18 18 18 18 18 18 18 18 18 18 18 17 18 17 17 17 17
30 31 32 31 30 30 31 31 31 31 31 30 29 28 27 26 25 24 24 23 22 22 21 20 20 20 20 20 19 19 19 19 18 18 18 18 18 18 18 18 18 18 18 17 17 17 17 17 17
31 31 31 31 29 29 30 31 31 31 30 30 29 29 28 27 26 25 24 23 22 22 21 20 20 20 20 19 19 19 19 19 19 18 18 18 18 18 18 18 18 18 17 17 17 17 17 17 17
29 30 30 30 30 29 30 31 32 31 30 30 30 29 28 27 26 25 24 23 22 22 21 20 20 20 19 19 19 19 19 19 19 18 18 18 18 18 18 18 18 18 17 17 17 17 17 17 16
30 30 30 29 29 29 30 31 31 31 31 30 29 28 27 26 26 25 24 23 22 22 21 21 20 20 19 19 19 19 19 19 19 18 18 18 18 18 18 18 18 17 17 17 17 17 17 16 16
Wind_Speed
12 9 5 4 2 5 10 9 8 7 6 6 6 5 7 8 7 6 4 5 5 6 7 8 8 8 8 9 9 10 11 12 12 12 13 13 14 14 14 14 14 14 14 14 13 13 13 13 12
8 6 4 3 3 8 10 8 9 9 6 5 6 6 7 8 7 6 5 5 5 6 7 8 9 9 9 9 10 11 12 12 12 12 12 12 13 13 14 14 14 14 14 13 13 13 13 13 12
6 5 3 1 9 10 9 9 9 8 7 5 5 6 6 6 6 4 6 5 6 7 7 8 8 9 9 10 11 11 12 12 12 12 12 12 13 13 13 13 13 13 13 13 12 12 12 11 11
4 3 2 6 13 11 9 8 6 7 7 7 6 7 7 7 4 6 7 6 7 6 7 9 8 9 9 10 11 11 11 11 11 12 12 12 13 13 12 12 12 12 12 12 11 11 11 10 9
4 2 4 11 13 11 9 8 7 7 7 7 7 9 9 8 8 8 7 6 7 7 7 9 9 9 9 10 10 11 11 11 11 11 11 12 12 12 12 11 12 11 11 11 10 10 9 9 8
2 0 7 11 12 10 9 7 8 9 9 8 8 10 8 7 8 8 7 7 7 7 7 9 9 9 9 9 9 10 10 10 11 11 11 11 11 11 11 11 10 10 10 9 9 8 8 7 7
2 4 10 11 11 10 8 6 8 8 9 8 6 9 7 8 8 7 7 7 6 6 7 7 8 9 9 9 9 10 10 10 10 10 11 11 11 11 11 10 10 9 9 8 8 7 6 6 5
2 2 9 10 10 10 7 7 7 8 9 7 5 6 7 8 7 7 7 7 7 6 6 6 7 7 7 10 11 10 10 10 10 10 10 10 10 11 11 11 10 8 8 7 6 6 5 4 4
2 4 10 10 9 9 7 7 7 7 9 8 7 9 10 10 8 8 7 7 7 6 6 5 6 6 6 9 11 11 11 10 9 10 10 8 8 9 10 10 9 8 7 6 5 4 4 4 7
1 8 11 8 8 9 8 7 7 7 9 8 9 11 11 9 8 7 7 7 7 6 6 6 6 6 6 7 8 7 8 8 6 7 7 6 6 6 7 11 8 7 6 6 5 4 4 5 5
5 9 8 7 7 8 8 7 6 6 7 7 9 11 10 9 7 6 7 6 7 6 6 6 6 5 5 5 5 5 5 6 6 6 5 5 4 5 6 6 7 6 6 5 6 5 2 1 2
6 8 7 7 6 7 7 7 6 6 7 8 10 10 9 8 6 6 6 6 6 6 5 5 6 6 5 5 5 5 4 4 4 5 4 4 3 3 4 3 3 3 3 3 2 2 2 1 2
6 7 7 7 7 7 7 7 6 7 8 9 10 9 9 7 6 6 6 6 6 5 5 5 5 6 5 4 3 4 4 4 5 4 4 3 3 3 3 2 1 1 2 3 2 2 2 1 1
6 7 8 8 8 6 7 7 5 7 8 10 10 8 7 6 6 5 5 5 6 5 5 6 6 6 5 4 3 3 3 4 3 3 4 2 2 2 2 2 1 1 1 1 1 2 2 1 1
6 7 7 6 5 5 5 6 6 9 9 9 9 8 7 6 5 5 4 5 6 5 5 6 6 6 5 4 3 3 3 4 3 4 4 2 2 2 1 1 1 1 2 2 2 2 1 1 1
5 4 4 5 4 4 4 6 8 9 9 9 8 7 7 6 5 5 5 5 5 6 6 5 5 6 5 4 3 3 2 3 3 3 4 3 2 2 1 1 1 1 2 2 2 1 1 1 1
5 2 2 4 4 3 3 3 8 9 9 8 8 8 7 6 6 6 6 6 6 6 6 6 5 5 5 5 4 3 3 3 3 3 3 3 2 1 1 1 2 1 1 1 1 3 1 1 1
3 2 2 2 4 4 3 2 7 9 9 8 8 8 7 7 7 7 7 6 6 6 6 6 6 5 5 5 4 3 3 3 2 3 3 2 2 1 0 2 1 1 1 1 2 2 1 1 1
2 2 1 2 2 4 4 3 6 10 10 9 9 8 8 7 7 7 7 7 7 7 7 6 5 5 4 4 4 3 3 2 2 3 3 2 1 2 1 1 2 0 1 1 1 1 2 2 2
5 4 2 2 2 4 4 5 6 9 11 9 9 9 9 8 9 9 8 8 8 8 7 7 6 6 5 4 3 2 2 2 2 2 3 1 1 1 1 1 1 1 1 1 1 1 0 1 1
7 5 3 2 3 5 4 5 7 9 10 10 10 10 10 10 10 10 10 10 9 8 8 7 7 6 6 5 4 4 4 3 3 3 2 1 1 1 2 1 1 1 1 2 1 1 0 0 1
7 3 4 5 6 3 5 4 5 8 9 11 11 12 11 11 11 11 12 11 10 10 9 8 8 7 6 6 5 4 4 3 3 2 2 2 2 1 1 1 1 1 1 1 1 2 0 1 0
4 2 4 6 7 7 5 6 2 7 7 9 10 12 12 12 12 12 12 12 11 11 10 9 9 8 7 7 6 5 4 3 3 2 3 1 2 2 1 1 1 1 1 1 2 1 1 1 1
6 5 5 7 8 8 4 6 3 4 5 6 8 10 11 11 11 11 12 12 11 11 11 10 10 9 8 7 6 6 4 3 3 2 3 2 2 2 2 1 1 0 1 1 1 0 1 1 1
10 9 6 7 6 5 3 6 3 0 2 3 5 8 10 11 11 11 12 12 12 12 12 11 11 9 9 8 7 7 6 5 4 3 3 2 1 1 1 1 1 0 1 1 1 1 0 0 1
13 12 8 6 5 4 5 5 1 1 2 3 4 7 8 9 10 11 12 12 12 12 12 12 11 10 9 9 8 7 7 5 4 4 2 2 1 1 2 1 1 1 0 1 1 0 1 0 1
11 12 10 9 8 7 4 4 4 4 4 5 6 7 7 8 9 11 12 12 12 12 12 11 11 10 10 9 8 7 7 6 4 4 4 3 2 1 2 1 1 1 1 0 1 0 0 0 1
9 8 7 10 8 8 6 7 4 5 5 6 6 6 7 8 8 8 10 11 12 12 12 11 11 10 10 9 9 8 8 7 6 6 4 3 2 2 2 2 2 1 1 1 2 2 1 1 1
10 11 9 9 9 9 7 3 1 3 4 5 6 5 6 7 8 8 8 10 11 11 12 12 11 10 10 9 9 8 8 8 7 6 6 5 4 3 3 3 2 2 2 2 2 2 1 2 1
11 12 12 10 10 10 10 4 3 2 3 4 4 5 5 6 7 7 8 9 10 11 11 11 12 12 11 10 9 9 8 8 8 7 6 6 5 4 4 4 3 3 3 3 3 3 2 3 2
Wind_Direction
172 178 200 228 214 75 61 53 51 53 53 52 52 45 44 37 31 68 71 71 71 83 90 97 96 106 110 110 110 110 109 109 110 109 109 114 119 121 122 122 122 123 123 122 120 119 119 121 122
168 177 217 240 41 68 63 55 56 54 73 77 68 62 59 57 53 81 87 79 83 85 87 86 93 103 106 108 109 112 112 112 111 110 109 111 116 121 123 121 121 122 122 121 121 121 121 121 122
175 215 263 49 52 55 63 61 66 77 75 64 65 54 49 60 66 72 87 96 88 82 81 86 91 98 102 106 109 113 114 113 112 111 111 111 112 116 119 119 120 120 120 121 121 122 122 123 122
204 218 223 68 67 60 63 67 73 82 73 62 73 77 70 59 63 89 103 98 94 93 87 88 93 96 102 105 106 112 116 116 114 112 112 112 112 112 111 113 114 116 117 119 122 122 122 123 125
237 254 86 74 70 69 68 65 69 66 69 70 73 84 77 67 86 101 105 102 95 87 85 91 94 100 102 106 107 111 114 115 114 114 113 112 111 110 109 109 111 113 115 117 119 119 122 125 129
245 287 68 72 76 75 73 72 75 72 79 77 82 87 79 90 96 100 99 94 92 92 92 95 98 100 104 107 109 112 115 115 114 115 115 115 114 113 112 110 111 114 115 115 117 121 124 127 132
354 55 70 76 83 80 72 69 67 77 79 74 81 89 99 97 99 105 98 95 91 92 93 96 106 109 113 112 113 117 118 116 116 117 116 117 118 119 118 115 115 114 117 118 121 123 126 127 133
331 78 76 76 79 80 89 81 73 75 81 84 74 90 112 113 114 108 106 106 100 94 92 98 100 101 115 121 121 121 119 115 115 118 117 123 131 131 130 131 122 119 118 122 127 130 130 133 143
264 75 68 65 75 90 104 99 91 89 97 86 75 87 109 121 122 116 111 106 102 98 100 103 104 105 108 114 123 130 127 123 129 125 126 143 135 131 138 116 120 122 121 123 122 126 135 152 157
40 68 68 64 74 97 107 98 105 112 101 96 95 99 113 125 126 120 114 115 112 109 109 106 103 102 105 109 119 124 124 121 117 111 120 123 118 117 114 119 122 122 127 137 131 141 176 203 155
67 70 76 83 87 103 110 104 103 107 98 107 120 125 129 130 129 122 114 110 111 118 113 110 109 113 110 110 117 116 118 118 121 114 116 113 119 122 121 126 136 145 159 152 144 176 178 126 93
89 79 81 89 101 110 105 104 99 84 85 111 125 130 133 135 128 121 116 117 119 119 113 110 114 113 105 105 113 121 124 126 123 122 126 116 110 111 109 117 120 137 136 133 151 143 111 72 88
94 91 94 101 111 109 110 102 100 100 106 121 127 133 136 135 128 122 117 122 126 128 126 121 119 117 119 115 120 115 119 122 118 112 113 109 112 105 103 90 95 121 127 151 154 126 115 101 93
98 106 109 111 115 122 115 110 116 118 131 135 139 142 143 140 137 130 133 137 141 142 136 133 137 132 130 127 119 110 117 122 116 112 108 110 108 96 97 120 109 110 132 122 136 118 125 136 96
130 125 122 122 128 136 140 118 115 135 146 148 149 148 150 152 150 149 148 147 147 146 143 143 144 137 139 136 134 128 133 128 114 111 117 127 123 111 116 105 130 104 116 122 121 113 139 155 128
171 171 131 131 145 162 230 95 127 153 161 159 159 157 163 165 167 160 154 154 151 148 149 153 149 140 141 137 130 121 109 104 110 117 119 122 116 131 146 121 95 104 129 131 136 149 131 96 92
194 178 111 132 168 173 233 99 140 166 175 172 171 170 173 169 174 167 162 161 159 156 155 154 148 143 142 137 134 126 114 104 109 110 107 111 121 129 135 79 68 146 117 106 102 96 64 96 87
190 188 143 133 162 204 231 141 153 176 188 185 182 181 181 179 177 171 170 165 162 160 159 159 156 150 150 148 142 135 127 119 113 110 99 96 106 101 90 119 87 98 104 100 85 94 90 92 108
240 241 180 120 146 221 241 222 177 182 196 197 192 189 189 187 176 172 174 174 171 167 167 169 167 158 163 161 165 155 148 134 122 117 103 102 83 86 79 77 109 84 90 65 102 115 132 121 121
231 232 214 150 162 239 252 238 198 191 202 205 201 198 196 190 180 178 181 182 182 178 177 175 176 170 173 161 162 156 144 144 125 108 105 112 100 91 121 76 105 80 97 104 100 124 79 125 160
233 242 247 244 203 219 259 217 196 195 205 206 209 207 202 198 191 186 187 187 185 184 184 182 180 177 181 173 169 155 153 155 135 131 125 106 95 96 57 68 47 60 63 93 123 150 159 176 161
231 228 245 244 246 243 250 272 186 194 198 205 208 209 207 203 198 192 189 190 190 187 183 182 179 179 178 180 179 170 163 149 136 127 118 122 102 79 79 71 68 44 59 87 156 108 219 265 207
229 183 234 244 255 268 234 269 193 178 206 207 205 205 205 202 201 198 194 191 191 188 183 179 179 179 180 183 180 187 177 158 151 141 125 134 112 90 71 77 74 78 75 64 36 77 326 279 311
173 189 214 235 247 252 247 262 254 181 212 208 196 197 198 197 198 198 195 190 190 188 184 181 179 180 180 184 186 191 182 173 162 159 153 162 140 124 98 99 86 89 74 90 74 98 134 2 351
204 220 227 225 226 239 207 252 261 114 191 212 194 183 188 191 192 194 191 189 190 190 188 185 181 180 181 185 189 189 187 184 187 194 178 191 156 139 114 83 114 90 103 105 85 145 34 41 349
214 229 243 254 254 241 199 242 220 154 187 194 175 172 175 181 188 192 190 188 190 190 190 189 184 183 184 186 187 188 190 197 192 194 205 187 190 130 106 132 149 127 127 120 121 173 158 190 271
213 228 249 259 262 262 235 232 229 196 193 173 164 164 170 175 180 188 188 187 188 189 189 188 184 185 186 187 186 190 193 199 191 179 196 198 188 173 149 162 160 155 146 151 196 141 280 248 262
237 229 230 243 251 254 241 240 235 194 191 176 172 171 172 175 178 181 184 187 187 187 186 187 183 185 186 187 190 189 189 191 194 197 192 195 191 194 188 185 184 187 193 200 221 213 184 243 259
200 214 229 243 252 259 258 243 117 179 185 189 184 176 177 181 180 178 179 182 183 185 184 185 185 186 189 191 190 189 189 191 194 196 196 197 200 198 206 205 204 207 211 205 205 234 214 232 244
224 223 219 232 238 248 266 254 125 164 189 190 182 174 176 180 179 177 176 178 182 184 187 188 188 190 192 191 188 189 189 190 194 196 199 200 201 207 205 208 209 213 214 212 215 228 224 228 232
Height
1496 1496 1496 1498 1492 1491 1498 1498 1496 1497 1499 1502 1502 1501 1501 1503 1505 1513 1515 1513 1512 1511 1511 1509 1508 1508 1509 1511 1512 1512 1513 1514 1516 1517 1518 1519 1521 1522 1524 1525 1527 1529 1530 1532 1533 1535 1536 1537 1538
1497 1497 1499 1496 1488 1498 1504 1499 1500 1501 1503 1504 1504 1504 1504 1508 1511 1514 1515 1515 1514 1514 1513 1512 1510 1510 1511 1513 1514 1514 1515 1516 1518 1519 1520 1521 1522 1524 1526 1527 1529 1530 1532 1534 1535 1536 1538 1539 1540
1498 1499 1499 1489 1492 1500 1504 1501 1502 1504 1505 1505 1506 1507 1509 1513 1515 1516 1517 1516 1516 1516 1515 1513 1512 1512 1513 1515 1516 1517 1518 1519 1520 1521 1522 1524 1525 1526 1528 1529 1531 1532 1534 1535 1536 1538 1539 1540 1541
1500 1500 1496 1491 1499 1500 1500 1501 1503 1503 1506 1507 1507 1510 1514 1517 1517 1518 1518 1518 1518 1518 1517 1515 1514 1515 1515 1517 1518 1519 1520 1521 1522 1523 1525 1526 1527 1528 1529 1531 1532 1534 1535 1536 1538 1539 1540 1541 1542
1501 1496 1490 1494 1499 1500 1501 1504 1505 1504 1506 1508 1508 1511 1516 1519 1519 1520 1520 1520 1520 1520 1519 1517 1516 1517 1518 1519 1520 1521 1522 1523 1525 1526 1527 1528 1530 1531 1532 1533 1534 1535 1537 1538 1539 1540 1542 1542 1543
1499 1491 1493 1501 1503 1502 1503 1506 1506 1506 1508 1510 1511 1513 1519 1522 1522 1522 1522 1522 1522 1522 1521 1519 1519 1519 1520 1520 1521 1523 1524 1525 1526 1528 1529 1530 1531 1533 1534 1535 1536 1537 1538 1539 1540 1541 1542 1543 1544
1498 1491 1495 1498 1502 1504 1506 1507 1507 1508 1510 1513 1514 1515 1520 1523 1524 1524 1524 1523 1523 1524 1523 1522 1522 1521 1521 1521 1522 1524 1526 1527 1528 1530 1531 1532 1533 1535 1536 1537 1538 1539 1540 1541 1542 1542 1543 1543 1544
1499 1492 1494 1497 1501 1505 1507 1509 1510 1511 1514 1516 1516 1517 1521 1525 1525 1525 1525 1525 1525 1525 1525 1524 1524 1523 1523 1523 1523 1525 1527 1529 1530 1532 1533 1534 1536 1537 1538 1539 1540 1541 1542 1542 1543 1543 1543 1543 1543
1499 1494 1498 1499 1500 1505 1508 1509 1513 1515 1516 1518 1518 1520 1523 1525 1526 1526 1526 1526 1526 1526 1527 1527 1526 1525 1525 1525 1526 1528 1530 1531 1533 1534 1535 1537 1539 1540 1541 1542 1542 1543 1543 1544 1544 1543 1543 1540 1540
1497 1496 1500 1500 1500 1503 1508 1510 1513 1514 1516 1519 1521 1524 1525 1527 1527 1527 1527 1527 1528 1528 1529 1528 1528 1528 1527 1528 1529 1531 1533 1534 1535 1537 1538 1539 1540 1542 1543 1543 1543 1544 1544 1544 1545 1544 1543 1541 1541
1497 1498 1500 1502 1504 1506 1508 1511 1513 1512 1515 1519 1522 1525 1527 1528 1528 1528 1529 1529 1530 1530 1530 1531 1530 1530 1530 1531 1532 1534 1536 1536 1538 1539 1540 1541 1542 1543 1544 1545 1545 1545 1546 1546 1546 1546 1546 1545 1545
1500 1501 1503 1504 1506 1507 1509 1512 1514 1515 1518 1521 1524 1526 1528 1529 1529 1530 1530 1531 1531 1532 1532 1533 1532 1532 1532 1533 1535 1536 1538 1539 1540 1541 1542 1543 1543 1544 1546 1546 1547 1547 1547 1547 1548 1548 1547 1547 1547
1501 1503 1505 1507 1508 1509 1511 1513 1515 1518 1521 1523 1525 1527 1528 1529 1530 1531 1532 1532 1532 1533 1534 1534 1534 1534 1534 1535 1536 1538 1540 1541 1542 1542 1543 1544 1545 1546 1547 1547 1547 1548 1548 1548 1548 1548 1548 1548 1548
1503 1504 1506 1507 1509 1511 1511 1514 1516 1520 1522 1524 1526 1528 1529 1530 1531 1532 1532 1533 1534 1534 1535 1535 1536 1536 1536 1537 1538 1540 1541 1542 1543 1544 1544 1545 1546 1547 1547 1548 1548 1548 1548 1549 1549 1549 1548 1549 1549
1504 1504 1505 1507 1509 1510 1511 1513 1515 1520 1522 1524 1526 1528 1530 1531 1532 1533 1533 1534 1535 1535 1536 1537 1538 1538 1538 1539 1540 1542 1543 1544 1545 1545 1545 1546 1547 1547 1548 1549 1548 1548 1548 1548 1548 1549 1549 1549 1549
1501 1501 1504 1506 1507 1510 1510 1513 1516 1520 1521 1523 1525 1528 1529 1531 1532 1533 1534 1535 1535 1536 1537 1538 1539 1539 1540 1540 1541 1543 1544 1545 1546 1546 1547 1547 1547 1548 1548 1549 1549 1548 1549 1549 1549 1549 1549 1550 1550
1500 1503 1504 1505 1506 1507 1507 1509 1514 1518 1520 1522 1524 1526 1528 1530 1532 1533 1534 1535 1536 1536 1537 1538 1539 1540 1541 1542 1543 1544 1544 1545 1546 1547 1548 1548 1548 1548 1549 1549 1549 1549 1549 1549 1549 1549 1549 1549 1549
1503 1501 1503 1504 1503 1506 1506 1506 1511 1516 1518 1519 1522 1525 1527 1529 1531 1532 1534 1535 1536 1537 1538 1539 1540 1541 1542 1543 1543 1545 1545 1546 1547 1548 1548 1548 1549 1549 1549 1549 1549 1549 1549 1549 1549 1548 1548 1548 1548
1497 1500 1503 1502 1502 1505 1506 1505 1507 1512 1515 1517 1519 1522 1525 1527 1530 1531 1533 1534 1535 1536 1537 1539 1540 1541 1542 1543 1544 1545 1546 1547 1548 1548 1548 1549 1549 1549 1549 1550 1549 1549 1549 1549 1549 1549 1549 1549 1548
1498 1501 1502 1502 1503 1504 1504 1503 1502 1508 1511 1514 1517 1520 1522 1525 1528 1530 1532 1533 1535 1536 1537 1538 1539 1541 1542 1543 1544 1545 1546 1547 1548 1548 1548 1549 1549 1549 1550 1549 1550 1549 1548 1548 1548 1548 1549 1549 1548
1499 1500 1501 1503 1502 1501 1503 1502 1501 1504 1508 1512 1515 1517 1519 1522 1525 1527 1529 1532 1533 1535 1536 1538 1539 1540 1542 1543 1544 1545 1546 1547 1548 1548 1549 1549 1549 1549 1549 1549 1549 1549 1549 1549 1548 1548 1548 1549 1548
1501 1496 1498 1501 1504 1502 1503 1507 1498 1497 1503 1506 1510 1513 1515 1519 1521 1524 1527 1529 1531 1533 1535 1537 1538 1539 1541 1542 1544 1545 1546 1547 1548 1548 1549 1549 1549 1549 1549 1549 1549 1549 1549 1548 1549 1548 1548 1548 1548
1495 1497 1498 1499 1501 1501 1499 1504 1495 1494 1499 1500 1503 1507 1511 1515 1518 1521 1524 1526 1529 1532 1534 1535 1536 1538 1540 1541 1543 1544 1546 1546 1547 1548 1548 1548 1549 1549 1549 1549 1549 1548 1549 1548 1548 1547 1547 1548 1548
1496 1499 1499 1498 1497 1510 1500 1504 1499 1489 1493 1494 1498 1503 1508 1511 1515 1518 1521 1524 1527 1529 1532 1533 1534 1536 1538 1540 1542 1543 1544 1546 1547 1547 1548 1549 1549 1549 1549 1549 1548 1548 1548 1548 1547 1547 1547 1547 1546
1496 1501 1510 1512 1510 1507 1495 1501 1496 1486 1488 1491 1495 1500 1505 1508 1512 1515 1518 1521 1524 1526 1529 1531 1532 1534 1536 1538 1540 1541 1543 1544 1545 1547 1548 1548 1549 1549 1548 1549 1548 1548 1548 1548 1547 1547 1547 1547 1546
1492 1494 1509 1517 1513 1500 1497 1499 1488 1485 1488 1492 1495 1498 1502 1506 1509 1512 1515 1518 1521 1524 1526 1529 1531 1532 1535 1537 1538 1540 1541 1543 1545 1545 1547 1548 1548 1548 1548 1547 1547 1547 1548 1548 1547 1547 1547 1546 1546
1490 1490 1484 1494 1499 1503 1494 1490 1485 1484 1487 1490 1493 1496 1500 1503 1506 1509 1512 1515 1518 1521 1524 1526 1529 1530 1533 1535 1536 1538 1540 1541 1543 1544 1545 1546 1547 1547 1547 1547 1547 1547 1547 1547 1546 1547 1546 1546 1546
1484 1483 1489 1494 1510 1511 1500 1493 1487 1484 1485 1487 1491 1494 1498 1501 1504 1507 1510 1513 1516 1519 1522 1524 1526 1528 1531 1533 1535 1537 1538 1539 1541 1543 1544 1545 1545 1546 1546 1546 1546 1546 1546 1546 1545 1546 1545 1545 1545
1489 1489 1489 1489 1491 1504 1506 1494 1476 1481 1483 1486 1489 1492 1496 1499 1502 1505 1508 1510 1513 1517 1519 1521 1524 1526 1529 1531 1533 1535 1536 1538 1539 1541 1542 1543 1543 1544 1544 1545 1545 1545 1545 1545 1544 1545 1544 1544 1544
1481 1482 1486 1497 1498 1495 1495 1490 1474 1479 1482 1484 1488 1491 1495 1498 1500 1503 1506 1508 1511 1514 1517 1519 1521 1524 1526 1528 1530 1532 1534 1535 1537 1538 1539 1540 1541 1542 1542 1543 1543 1543 1544 1543 1543 1543 1543 1543 1543